World > North America > United States > Illinois > Geff

Hourly Geff, IL Regional Weather

Feedback E-mail the Weather

Quick WX

Geff, IL Weather Maps

°F °C°F °C
Geff Weather Map
UTC Time: 8/14/2022, 18:08
Your Time:

Geff, IL Regional Weather

Expires:202208141900;;094624
ASUS43 KLOT 141806
RWRIL 

ILLINOIS REGIONAL WEATHER ROUNDUP
NATIONAL WEATHER SERVICE CHICAGO/ROMEOVILLE IL
100 PM CDT SUN AUG 14 2022

NOTE: "FAIR" INDICATES FEW OR NO CLOUDS BELOW 12,000 FEET WITH NO
SIGNIFICANT WEATHER AND/OR OBSTRUCTIONS TO VISIBILITY.

* THESE STATIONS ARE NOT UNDER NWS QUALITY CONTROL. THEY ALSO MAY NOT
  REPORT WEATHER SUCH AS PRECIPITATION OR FOG.


ILZ064>066-069>071-074>076-080>082-084>086-088>090-092>094-141900-
SOUTH-CENTRAL ILLINOIS
  
CITY           SKY/WX    TMP DP  RH WIND       PRES   REMARKS
CARBONDALE     MOSUNNY   85  72  65 W12G18    29.92F HX  91           
6HR MIN TEMP:  68; 6HR MAX TEMP:  86;                                

CAIRO*         MOSUNNY   84  69  60 W12G18    29.95S HX  88           
EFFINGHAM*     CLOUDY    76  72  86 W8        29.93S                  
MARION         MOSUNNY   84  72  65 W13       29.92F HX  89           
MT. VERNON     CLOUDY    81  72  74 W5        29.93R HX  85           
CENTRALIA*     CLOUDY    82  74  78 NW8       29.92S HX  87           
SALEM*         CLOUDY    82  73  72 W10       29.92F HX  88           
METROPOLIS*    SUNNY     86  66  50 SW9G18    29.94F HX  88           
$$


SKY/WX - Weather  TMP - Temperature  DP - Dew Point  RH - Humidity
WIND - Wind Direction/Speed PRES - Barometric Pressure VSB - Visibility
WCI - Wind Chill Index E13G22 Wind - East Wind 13 mph/Gusts of 22 mph

Trending Headlines

Geff Radar Loop



Geff Quick Facts


National Two Day Weather Forecast


E-mail the Geff Weather Forecast

Voice your opinion or tell us about page issues...